Regional Weather Roundup
Issued by NWS

Home | Current Version | Previous Version | Text Only | Print | Product List | Glossary Off
Versions: 1 2 3 4 5 6 7 8 9 10 11 12 13 14 15 16 17 18 19 20 21 22 23 24 25 26 27 28 29 30 31 32 33 34 35 36 37 38 39 40 41 42 43 44 45 46 47 48 49 50

000
ASUS43 KFSD 180310
RWRSD

WEATHER ROUNDUP FOR SOUTH DAKOTA
NATIONAL WEATHER SERVICE SIOUX FALLS SD
1000 PM CDT THU APR 17 2014

NOTE: "FAIR" INDICATES FEW OR NO CLOUDS BELOW 12,000 FEET WITH NO
SIGNIFICANT WEATHER AND/OR OBSTRUCTIONS TO VISIBILITY.


SDZ001>005-009-010-012>017-180400-
NORTHWEST AND NORTH CENTRAL SOUTH DAKOTA

CITY           SKY/WX    TMP DP  RH WIND       PRES   REMARKS
BUFFALO          N/A     42  32  67 SE13      29.91R
FAITH            N/A     39  28  64 SE21      30.03R
MOBRIDGE       CLEAR     37  22  54 SE15      30.12S
$$

SDZ012>016-024>037-041>051-057-063-072>074-180400-
SOUTHWEST AND SOUTH CENTRAL SOUTH DAKOTA

CITY           SKY/WX    TMP DP  RH WIND       PRES   REMARKS
RAPID CTY ARPT PTCLDY    42  34  73 SE7       29.97R
PIERRE         CLEAR     38  25  59 SE17      30.10S
CUSTER         PTCLDY    40  33  76 SE5       29.98S
ELLSWORTH AFB  PTCLDY    43  35  73 SE14      29.97R
PHILIP         CLEAR     37  27  67 E10       30.04R
PINE RIDGE     MOCLDY    49  35  58 S13       29.99S
SPEARFISH      FAIR      39  32  75 S7        29.93S
WINNER         FAIR      37  25  61 SE16      30.12R
$$

SDZ004>011-016>023-039-040-180400-
NORTHEAST SOUTH DAKOTA

CITY           SKY/WX    TMP DP  RH WIND       PRES   REMARKS
ABERDEEN       CLOUDY    35  21  56 SE7       30.24R WCI  29
WATERTOWN      CLEAR     31  18  58 SE6       30.26R WCI  25
SISSETON         N/A     30  23  75 S7        30.27R WCI  23
$$

SDZ017-020-022-023-036>040-048>070-180400-
SOUTHEAST SOUTH DAKOTA

CITY           SKY/WX    TMP DP  RH WIND       PRES   REMARKS
SIOUX FALLS    CLOUDY    38  25  59 E8        30.27R
HURON          CLOUDY    40  27  59 SE9       30.22S
CHAMBERLAIN      N/A     38  27  64 SE13      30.16S
MITCHELL       MOCLDY    42  24  49 SE13      30.23S
YANKTON        PTCLDY    41  25  52 NE9       30.25S
$$

ABBREVIATIONS USED IN REMARKS
   TC - TEMPERATURE IN CELSIUS
  WCI - WIND CHILL INDEX
   HX - HEAT INDEX
  VSB - VISIBILITY




USA.gov is the U.S. government's official web portal to all federal, state and local government web resources and services.